DW5342 Weather Reports


time (UTC)temp
C
wind
direction
speed
KPH
gust
KPH
rain 1hr
cm
rain 24hr
cm
rain mn
cm
humidity
%
barometer
mb
20260506153028 23 220 19.3 33.8 0.00 0.00 0.00 66 1015.3
20260506151527 23 235 17.7 33.8 0.00 0.00 0.00 68 1015.3
20260506150030 23 223 22.5 35.4 0.00 0.00 0.00 69 1015.5
20260506144528 23 210 24.1 32.2 0.00 0.00 0.00 67 1015.6
20260506143026 23 212 29.0 38.6 0.00 0.00 0.00 67 1015.5
20260506141524 23 210 25.7 37.0 0.00 0.00 0.00 67 1015.2
20260506140024 23 220 32.2 45.1 0.00 0.00 0.00 66 1015.2
20260506134550 23 209 22.5 37.0 0.00 0.00 0.00 68 1015.1
20260506133021 22 230 22.5 40.2 0.00 0.00 0.00 70 1015.2
20260506131519 22 220 12.9 25.7 0.00 0.00 0.00 74 1015.3
20260506130017 21 233 14.5 32.2 0.00 0.00 0.00 75 1015.3
20260506124513 21 220 14.5 24.1 0.00 0.00 0.00 79 1015.6
20260506123006 20 205 9.7 20.9 0.00 0.00 0.00 81 1015.4
20260506121507 20 228 9.7 20.9 0.00 0.00 0.00 82 1015.4
20260506120004 19 205 8.0 19.3 0.00 0.00 0.00 83 1015.7
20260506114601 18 222 11.3 20.9 0.00 0.00 0.00 84 1015.9
20260506113058 18 218 4.8 14.5 0.00 0.00 0.00 85 1015.4
20260506111612 17 210 1.6 9.7 0.00 0.00 0.00 87 1015.5
20260506110056 16 174 0.0 4.8 0.00 0.00 0.00 90 1015.6
20260506104603 16 176 0.0 3.2 0.00 0.00 0.00 90 1015.7
20260506103104 16 212 0.0 4.8 0.00 0.00 0.00 90 1015.5
20260506101554 15 197 0.0 3.2 0.00 0.00 0.00 90 1015.3
20260506100053 15 153 0.0 4.8 0.00 0.00 0.00 87 1015.2
20260506094550 16 154 0.0 1.6 0.00 0.00 0.00 86 1015.4
20260506093052 17 154 0.0 3.2 0.00 0.00 0.00 86 1015.5
20260506091544 17 152 0.0 6.4 0.00 0.00 0.00 85 1015.5
20260506090044 17 210 1.6 11.3 0.00 0.00 0.00 84 1015.7
20260506084543 17 218 1.6 8.0 0.00 0.00 0.00 85 1015.5
20260506083055 17 211 1.6 8.0 0.00 0.00 0.00 84 1015.5
20260506081547 17 216 4.8 17.7 0.00 0.00 0.00 84 1015.5
20260506073041 17 207 6.4 14.5 0.00 0.00 0.00 82 1015.5
20260506071538 17 220 3.2 8.0 0.00 0.00 0.00 84 1015.4
20260506061537 18 196 1.6 11.3 0.00 0.00 0.00 82 1016.0
20260506044523 18 194 6.4 17.7 0.00 0.00 0.00 81 1016.6
20260506043018 18 161 9.7 17.7 0.00 0.00 0.00 82 1016.8
20260506041516 18 232 8.0 14.5 0.00 0.00 0.00 82 1016.8
20260506040016 18 226 9.7 16.1 0.00 0.00 0.00 82 1016.9
20260506034512 18 229 4.8 14.5 0.00 0.00 0.00 81 1016.8
20260506033015 18 185 6.4 14.5 0.00 0.00 0.00 80 1016.9
20260506031511 18 222 4.8 14.5 0.00 0.00 0.00 81 1016.9
20260506030012 18 204 3.2 12.9 0.00 0.00 0.00 81 1017.0
20260506024525 18 199 6.4 16.1 0.00 0.00 0.00 81 1017.1
20260506023010 18 223 6.4 16.1 0.00 0.00 0.00 80 1017.0
20260506021511 18 208 6.4 14.5 0.00 0.00 0.00 79 1017.0
20260506020009 19 216 1.6 12.9 0.00 0.00 0.00 75 1016.7
20260506014513 19 139 3.2 12.9 0.00 0.00 0.00 72 1016.6
20260506013008 20 231 3.2 12.9 0.00 0.00 0.00 71 1016.7
20260506011511 20 171 3.2 12.9 0.00 0.00 0.00 71 1016.6
20260506010007 20 216 4.8 14.5 0.00 0.00 0.00 70 1016.5
20260506004507 20 193 6.4 22.5 0.00 0.00 0.00 68 1016.4
20260506003008 20 233 9.7 24.1 0.00 0.00 0.00 67 1016.3
20260506001506 21 209 9.7 24.1 0.00 0.00 0.00 65 1016.1
20260506000005 21 181 12.9 24.1 0.00 0.00 0.00 64 1016.0
20260505234508 21 227 11.3 25.7 0.00 0.00 0.00 63 1015.7
20260505233005 22 111 11.3 29.0 0.00 0.00 0.00 62 1015.7
20260505231506 22 190 17.7 29.0 0.00 0.00 0.00 60 1015.5
20260505230008 22 201 14.5 29.0 0.00 0.00 0.00 58 1015.5
20260505224503 23 235 16.1 29.0 0.00 0.00 0.00 59 1015.6
20260505223003 23 226 14.5 29.0 0.00 0.00 0.00 58 1015.6
20260505221502 23 213 14.5 29.0 0.00 0.00 0.00 58 1015.8
20260505220001 23 216 8.0 22.5 0.00 0.00 0.00 58 1015.7
20260505214501 23 125 8.0 19.3 0.00 0.00 0.00 59 1015.5
20260505213000 23 252 8.0 33.8 0.00 0.00 0.00 56 1015.5
20260505211600 24 224 17.7 27.4 0.00 0.00 0.00 55 1015.5
20260505210059 25 205 8.0 30.6 0.00 0.00 0.00 54 1015.3
20260505204602 25 203 8.0 27.4 0.00 0.00 0.00 55 1015.4
20260505203103 25 222 9.7 25.7 0.00 0.00 0.00 56 1015.4
20260505201556 25 208 14.5 29.0 0.00 0.00 0.00 55 1015.5
20260505200054 26 204 8.0 29.0 0.00 0.00 0.00 54 1015.8
20260505194609 25 221 9.7 33.8 0.00 0.00 0.00 54 1016.0
20260505193052 25 218 9.7 27.4 0.00 0.00 0.00 55 1016.1
20260505191605 25 152 17.7 32.2 0.00 0.00 0.00 52 1016.3
20260505190053 25 205 17.7 35.4 0.00 0.00 0.00 52 1016.5
20260505184550 25 227 11.3 27.4 0.00 0.00 0.00 52 1016.5
20260505183051 26 195 12.9 25.7 0.00 0.00 0.00 47 1016.6
20260505181548 26 46 9.7 27.4 0.00 0.00 0.00 48 1016.7
20260505180054 25 200 22.5 33.8 0.00 0.00 0.00 46 1016.8
20260505174545 25 214 14.5 29.0 0.00 0.00 0.00 50 1016.8
20260505173048 25 218 16.1 24.1 0.00 0.00 0.00 49 1016.9
20260505171547 25 191 8.0 24.1 0.00 0.00 0.00 50 1017.1
20260505170041 25 187 19.3 30.6 0.00 0.00 0.00 48 1017.3
20260505164538 24 170 12.9 29.0 0.00 0.00 0.00 51 1017.5
20260505163036 24 225 16.1 25.7 0.00 0.00 0.00 52 1017.4
20260505161535 23 218 11.3 32.2 0.00 0.00 0.00 52 1017.6